MST,Max TemperatureF,Mean TemperatureF,Min TemperatureF,Max Dew PointF,MeanDew PointF,Min DewpointF,Max Humidity, Mean Humidity, Min Humidity, Max Sea Level PressureIn, Mean Sea Level PressureIn, Min Sea Level PressureIn, Max VisibilityMiles, Mean VisibilityMiles, Min VisibilityMiles, Max Wind SpeedMPH, Mean Wind SpeedMPH, Max Gust SpeedMPH,PrecipitationIn, CloudCover, Events, WindDirDegrees
2012-12-1,64,46,28,34,30,25,85,58,31,29.87,29.77,29.64,10,10,10,16,5,20,0.00,0,,280
2012-12-2,69,48,27,35,28,25,92,58,24,29.85,29.62,29.36,10,10,10,29,10,37,0.00,0,,220
2012-12-3,63,46,29,38,23,15,71,46,20,30.13,29.85,29.37,10,10,10,41,17,54,T,1,,292
2012-12-4,56,41,26,24,19,17,75,50,24,30.28,30.17,30.06,10,10,10,15,9,18,0.00,0,,221
2012-12-5,55,37,18,33,25,14,92,65,38,30.05,29.84,29.68,10,10,10,30,4,37,T,1,,292
2012-12-6,49,41,32,26,16,11,51,38,25,30.08,30.01,29.89,10,10,10,31,8,36,0.00,7,,324
2012-12-7,37,28,19,30,28,17,92,70,47,30.02,29.93,29.85,10,7,1,22,8,26,0.10,7,Snow,86
2012-12-8,38,26,13,31,20,10,92,81,69,30.01,29.81,29.65,10,7,1,38,13,46,0.02,4,Snow,336
2012-12-9,13,4,-5,9,2,-8,92,80,67,30.46,30.27,29.94,10,5,0,39,17,47,0.02,5,Fog-Snow,324
2012-12-10,34,13,-9,27,11,-12,87,73,59,30.17,29.96,29.81,10,9,1,31,9,36,T,4,Snow,294
2012-12-11,37,28,18,23,20,14,92,72,52,29.94,29.83,29.67,10,10,9,18,7,24,T,2,Snow,249
2012-12-12,48,33,17,32,22,15,92,73,53,29.86,29.73,29.67,10,10,10,10,4,13,0.00,0,,336
2012-12-13,28,23,17,27,23,16,100,94,88,30.12,29.98,29.86,10,3,0,14,6,16,0.00,7,Fog,10
2012-12-14,29,22,14,24,18,11,100,90,80,29.91,29.78,29.59,10,7,0,12,3,14,0.00,2,Fog,339
2012-12-15,35,27,19,22,19,17,92,74,56,29.85,29.78,29.66,10,10,10,18,9,21,0.00,2,,304
2012-12-16,37,28,18,26,21,16,100,82,64,29.82,29.76,29.67,10,8,1,16,7,22,0.01,6,Snow,36
2012-12-17,37,23,9,25,20,7,100,82,64,29.77,29.58,29.43,10,4,0,17,7,21,0.00,5,Fog,37
2012-12-18,42,32,21,24,20,14,100,70,40,29.87,29.66,29.46,10,8,2,15,9,106,0.04,3,Snow,281
2012-12-19,30,19,8,19,15,5,88,73,58,30.21,30.04,29.87,10,10,10,24,9,30,0.00,3,,288
2012-12-20,41,23,4,14,8,1,88,57,25,30.26,30.20,30.14,10,10,10,15,5,17,0.00,0,,268
2012-12-21,43,25,6,22,12,3,92,66,39,30.19,30.11,29.99,10,10,10,10,3,12,0.00,0,,27
2012-12-22,24,16,8,15,11,6,92,82,71,30.19,30.11,29.99,10,10,8,18,7,23,0.00,2,,355
2012-12-23,14,7,-1,9,4,-5,91,81,70,30.21,30.06,29.91,10,7,1,17,8,22,T,6,Snow,20
2012-12-24,7,3,-2,3,-1,-6,88,84,79,30.50,30.27,30.08,10,10,7,17,6,21,0.00,6,,39
2012-12-25,14,6,-3,8,1,-7,87,79,70,30.61,30.49,30.29,10,10,5,13,5,20,T,6,Snow,196
2012-12-26,20,8,-4,13,4,-7,95,81,67,30.27,30.11,29.90,10,10,7,14,6,20,0.01,3,Snow,98
2012-12-27,18,9,0,12,8,-2,100,84,67,30.16,30.00,29.89,10,5,1,13,8,15,0.07,7,Snow,75
2012-12-28,22,8,-7,14,4,-9,96,82,67,30.18,30.12,30.00,10,8,1,10,6,24,0.00,4,,264
2012-12-29,33,21,9,21,12,5,84,71,58,30.20,30.15,30.06,10,10,10,15,8,17,0.00,0,,259
2012-12-30,30,16,1,22,12,0,92,75,58,30.21,30.09,29.99,10,10,10,22,8,28,0.00,2,,306
2012-12-31,28,17,6,21,15,3,92,84,75,30.24,30.17,30.07,10,10,10,12,4,14,0.00,5,,251